SPACEMOBILE-003

Last updated on Fri Sep 11 2026 00:02:08 GMT+0000 (Coordinated Universal Time)

1 61045U 24163A 26253.39351795 -.00000139 00000+0 84871-5 0 9998 2 61045 52.9683 277.6642 0005265 23.3022 336.8210 15.20484529110730
UTC large
Height (km)
Speed (km/s)
/
Latitude / Longitude
Inclination (degrees)
Orbital Period (minutes)
Azimuth
Elevation
Range (km)
Doppler Factor

Next 0 passes for location: London (51.5072 / 0.1276)

No passes found over London.
SPACEMOBILE-003